When you browse on this site, cookies collect data to enhance your experience and personalize the content and advertising you see.
Visit our Privacy Policy to learn more. By continuing to use the site, you agree to this use of cookies and data.
  • In Romania
  • List of Countries
  • For 7 days
  • Water Temperature
  • Satellite Maps
  • Weather Map
  • Weather Widgets
  • user-avatar
    Login

    Hourly Weather Ålesund

    Today, 20 July, Saturday

    Time Temperature Precipitation Wind Pressure Humidity
    00:00 +12°C° 0 mm 1 mps 754 mmHg 95%
    01:00 +12°C° 0 mm 1 mps 754 mmHg 94%
    02:00 +12°C° 0 mm 1 mps 754 mmHg 94%
    03:00 +12°C° 0 mm 1 mps 754 mmHg 93%
    04:00 +14°C° 0 mm 1 mps 754 mmHg 89%
    05:00 +15°C° 0 mm 1 mps 753 mmHg 84%
    06:00 +18°C° 0 mm 1 mps 753 mmHg 80%
    07:00 +19°C° 0 mm 1 mps 753 mmHg 74%
    08:00 +20°C° 0 mm 1 mps 753 mmHg 68%
    09:00 +22°C° 0 mm 1 mps 753 mmHg 62%
    10:00 +21°C° 0 mm 2 mps 752 mmHg 59%
    11:00 +23°C° 0 mm 2 mps 752 mmHg 56%
    12:00 +24°C° 0 mm 2 mps 752 mmHg 53%
    13:00 +24°C° 0 mm 2 mps 751 mmHg 54%
    14:00 +24°C° 0 mm 2 mps 751 mmHg 54%
    15:00 +24°C° 0 mm 2 mps 751 mmHg 55%
    16:00 +21°C° 0.1 mm 2 mps 751 mmHg 64%
    17:00 +20°C° 0.1 mm 2 mps 751 mmHg 74%
    18:00 +18°C° 0.1 mm 2 mps 751 mmHg 83%
    19:00 +18°C° 0.3 mm 2 mps 750 mmHg 86%
    20:00 +17°C° 0.3 mm 2 mps 750 mmHg 88%
    21:00 +18°C° 0.3 mm 1 mps 750 mmHg 91%
    22:00 +18°C° 0.2 mm 1 mps 750 mmHg 91%
    23:00 +18°C° 0.2 mm 1 mps 750 mmHg 92%

    Tomorrow, 21 July, Sunday

    Time Temperature Precipitation Wind Pressure Humidity
    00:00 +16°C° 0.2 mm 1 mps 750 mmHg 92%
    01:00 +16°C° 0.5 mm 1 mps 750 mmHg 93%
    02:00 +16°C° 0.5 mm 1 mps 750 mmHg 94%
    03:00 +16°C° 0.5 mm 1 mps 750 mmHg 95%
    04:00 +16°C° 0.9 mm 1 mps 750 mmHg 95%
    05:00 +16°C° 0.9 mm 1 mps 750 mmHg 95%
    06:00 +16°C° 0.9 mm 1 mps 750 mmHg 95%
    07:00 +16°C° 1.7 mm 1 mps 750 mmHg 96%
    08:00 +16°C° 1.7 mm 1 mps 750 mmHg 96%
    09:00 +16°C° 1.7 mm 2 mps 751 mmHg 96%
    10:00 +17°C° 1 mm 2 mps 751 mmHg 94%
    11:00 +18°C° 1 mm 1 mps 751 mmHg 92%
    12:00 +19°C° 1 mm 1 mps 752 mmHg 90%
    13:00 +17°C° 1 mm 2 mps 752 mmHg 92%
    14:00 +17°C° 1 mm 4 mps 753 mmHg 93%
    15:00 +16°C° 1 mm 5 mps 753 mmHg 94%
    16:00 +15°C° 0.5 mm 4 mps 754 mmHg 92%
    17:00 +15°C° 0.5 mm 4 mps 754 mmHg 91%
    18:00 +15°C° 0.5 mm 4 mps 754 mmHg 89%
    19:00 +14°C° 0 mm 4 mps 755 mmHg 91%
    20:00 +13°C° 0 mm 3 mps 756 mmHg 93%
    21:00 +12°C° 0 mm 3 mps 756 mmHg 95%
    22:00 +11°C° 0 mm 3 mps 756 mmHg 94%
    23:00 +11°C° 0 mm 3 mps 756 mmHg 93%

    Day after tomorrow, 22 July, Monday

    Time Temperature Precipitation Wind Pressure Humidity
    00:00 +11°C° 0 mm 3 mps 756 mmHg 92%
    01:00 +11°C° 0 mm 3 mps 756 mmHg 92%
    02:00 +12°C° 0 mm 2 mps 756 mmHg 91%
    03:00 +10°C° 0 mm 2 mps 756 mmHg 91%
    04:00 +13°C° 0 mm 2 mps 756 mmHg 87%
    05:00 +14°C° 0 mm 2 mps 756 mmHg 83%
    06:00 +16°C° 0 mm 1 mps 755 mmHg 79%
    07:00 +18°C° 0 mm 1 mps 755 mmHg 71%
    08:00 +18°C° 0 mm 2 mps 755 mmHg 64%
    09:00 +20°C° 0 mm 2 mps 754 mmHg 56%
    10:00 +20°C° 0 mm 2 mps 754 mmHg 54%
    11:00 +21°C° 0 mm 2 mps 753 mmHg 52%
    12:00 +23°C° 0 mm 2 mps 753 mmHg 50%
    13:00 +20°C° 0.1 mm 3 mps 752 mmHg 58%
    14:00 +19°C° 0.1 mm 3 mps 751 mmHg 67%
    15:00 +18°C° 0.1 mm 3 mps 751 mmHg 76%
    16:00 +18°C° 0.7 mm 3 mps 751 mmHg 81%
    17:00 +17°C° 0.7 mm 3 mps 751 mmHg 87%
    18:00 +16°C° 0.7 mm 3 mps 750 mmHg 93%
    19:00 +15°C° 0.3 mm 4 mps 751 mmHg 92%
    20:00 +15°C° 0.3 mm 4 mps 751 mmHg 92%
    21:00 +15°C° 0.3 mm 5 mps 752 mmHg 92%
    22:00 +15°C° 0 mm 5 mps 753 mmHg 92%
    23:00 +15°C° 0 mm 5 mps 753 mmHg 93%

    23 July, Tuesday

    Time Temperature Precipitation Wind Pressure Humidity
    00:00 +15°C° 0 mm 5 mps 754 mmHg 94%
    01:00 +15°C° 0.1 mm 5 mps 754 mmHg 94%
    02:00 +15°C° 0.1 mm 4 mps 754 mmHg 95%
    03:00 +15°C° 0.1 mm 4 mps 754 mmHg 96%
    04:00 +15°C° 0.4 mm 4 mps 754 mmHg 96%
    05:00 +17°C° 0.4 mm 3 mps 755 mmHg 96%
    06:00 +17°C° 0.4 mm 3 mps 755 mmHg 96%
    07:00 +17°C° 1.7 mm 3 mps 755 mmHg 97%
    08:00 +17°C° 1.7 mm 3 mps 755 mmHg 97%
    09:00 +17°C° 1.7 mm 4 mps 756 mmHg 98%
    10:00 +17°C° 2 mm 3 mps 756 mmHg 98%
    11:00 +17°C° 2 mm 3 mps 757 mmHg 98%
    12:00 +17°C° 2 mm 3 mps 757 mmHg 98%
    13:00 +17°C° 1.8 mm 3 mps 758 mmHg 98%
    14:00 +17°C° 1.8 mm 3 mps 758 mmHg 98%
    15:00 +17°C° 1.8 mm 2 mps 758 mmHg 98%
    16:00 +17°C° 1.3 mm 2 mps 758 mmHg 98%
    17:00 +18°C° 1.3 mm 1 mps 758 mmHg 99%
    18:00 +16°C° 1.3 mm 1 mps 759 mmHg 99%
    19:00 +16°C° 0.6 mm 1 mps 759 mmHg 99%
    20:00 +16°C° 0.6 mm 1 mps 759 mmHg 99%
    21:00 +16°C° 0.6 mm 1 mps 759 mmHg 99%
    22:00 +16°C° 0.1 mm 1 mps 760 mmHg 99%
    23:00 +16°C° 0.1 mm 1 mps 760 mmHg 99%

    24 July, Wednesday

    Time Temperature Precipitation Wind Pressure Humidity
    00:00 +16°C° 0.1 mm 1 mps 760 mmHg 99%
    01:00 +16°C° 0.1 mm 1 mps 760 mmHg 98%
    02:00 +16°C° 0.1 mm 1 mps 760 mmHg 98%
    03:00 +16°C° 0.1 mm 1 mps 760 mmHg 98%
    04:00 +18°C° 0.1 mm 1 mps 760 mmHg 97%
    05:00 +18°C° 0.1 mm 1 mps 760 mmHg 97%
    06:00 +18°C° 0.1 mm 1 mps 760 mmHg 96%
    07:00 +19°C° 0 mm 1 mps 760 mmHg 93%
    08:00 +20°C° 0 mm 1 mps 760 mmHg 91%
    09:00 +21°C° 0 mm 1 mps 760 mmHg 88%
    10:00 +22°C° 0 mm 1 mps 760 mmHg 82%
    11:00 +24°C° 0 mm 1 mps 760 mmHg 75%
    12:00 +25°C° 0 mm 2 mps 760 mmHg 69%
    13:00 +25°C° 0 mm 2 mps 759 mmHg 68%
    14:00 +25°C° 0 mm 2 mps 759 mmHg 68%
    15:00 +26°C° 0 mm 2 mps 759 mmHg 67%
    16:00 +25°C° 0 mm 2 mps 759 mmHg 70%
    17:00 +25°C° 0 mm 2 mps 759 mmHg 73%
    18:00 +24°C° 0 mm 2 mps 759 mmHg 75%
    19:00 +23°C° 0 mm 1 mps 759 mmHg 81%
    20:00 +21°C° 0 mm 1 mps 759 mmHg 87%
    21:00 +18°C° 0 mm 0 mps 759 mmHg 93%
    22:00 +19°C° 0 mm 1 mps 758 mmHg 93%
    23:00 +19°C° 0 mm 1 mps 758 mmHg 92%

    25 July, Thursday

    Time Temperature Precipitation Wind Pressure Humidity
    00:00 +19°C° 0 mm 1 mps 758 mmHg 92%
    01:00 +19°C° 0 mm 1 mps 758 mmHg 91%
    02:00 +20°C° 0 mm 1 mps 757 mmHg 89%
    03:00 +20°C° 0 mm 1 mps 757 mmHg 88%
    04:00 +21°C° 0 mm 1 mps 757 mmHg 83%
    05:00 +23°C° 0 mm 1 mps 757 mmHg 77%
    06:00 +24°C° 0 mm 1 mps 757 mmHg 72%
    07:00 +26°C° 0 mm 1 mps 757 mmHg 66%
    08:00 +27°C° 0 mm 2 mps 757 mmHg 59%
    09:00 +28°C° 0 mm 2 mps 757 mmHg 53%
    10:00 +29°C° 0 mm 3 mps 757 mmHg 53%
    11:00 +29°C° 0 mm 4 mps 757 mmHg 52%
    12:00 +29°C° 0 mm 5 mps 758 mmHg 51%
    13:00 +29°C° 0 mm 4 mps 758 mmHg 52%
    14:00 +29°C° 0 mm 4 mps 758 mmHg 53%
    15:00 +30°C° 0 mm 4 mps 758 mmHg 54%
    16:00 +29°C° 0 mm 3 mps 758 mmHg 59%
    17:00 +28°C° 0 mm 2 mps 758 mmHg 64%
    18:00 +27°C° 0 mm 2 mps 758 mmHg 69%
    19:00 +25°C° 0 mm 1 mps 758 mmHg 74%
    20:00 +24°C° 0 mm 1 mps 758 mmHg 80%
    21:00 +22°C° 0 mm 1 mps 758 mmHg 85%
    22:00 +22°C° 0 mm 1 mps 758 mmHg 83%
    23:00 +23°C° 0 mm 2 mps 758 mmHg 81%
    Show more